Location: Burland Observatory
(39.4088°N, 105.4217°W)
Time: 03:10:02
(UTC-07:00)

A-11 Canister half - Visible Passes

Search period start: 16 December 2019 00:00
Search period end: 26 December 2019 00:00
Orbit: 1515 x 1684 km, 47.2° (Epoch: 15 December)

Date Brightness Start Highest point End Pass type
(mag) Time Alt. Az. Time Alt. Az. Time Alt. Az.
16 Dec 9.9 17:00:09 10° WNW 17:09:52 58° SW 17:19:43 10° SE visible
16 Dec 11.5 19:08:03 10° W 19:13:22 16° WSW 19:18:43 10° SSW visible
17 Dec 11.5 18:44:40 10° W 18:50:32 17° WSW 18:56:28 10° SSW visible
18 Dec 11.5 18:21:22 10° W 18:27:42 19° SW 18:34:06 10° SSW visible
19 Dec 11.5 17:58:07 10° W 18:04:52 21° SW 18:11:41 10° SSW visible
20 Dec 11.5 17:34:55 10° W 17:42:01 22° SW 17:49:13 10° S visible
21 Dec 11.4 06:47:07 10° S 06:54:11 25° SE 07:01:22 10° ENE visible
21 Dec 11.5 17:11:45 10° WNW 17:19:10 24° SW 17:26:42 10° S visible
22 Dec 11.4 06:24:38 10° S 06:31:22 23° SE 06:38:13 10° E visible
23 Dec 11.4 06:02:10 10° S 06:08:34 21° SE 06:15:02 10° E visible
24 Dec 11.4 05:39:46 10° SSE 05:45:45 19° SE 05:51:49 10° E visible
25 Dec 11.3 05:17:25 10° SSE 05:22:57 18° SE 05:28:32 10° E visible
